Weather History for KSFF

Nearest airport to NA, NA.

See history from more local stations
Change the Weather History Date:

Thursday, March 28, 2013

  Actual Average Record
Temperature  
Mean Temperature 47 °F 44 °F  
Max Temperature 60 °F 53 °F 60 °F (2013)
Min Temperature 34 °F 34 °F 24 °F (1998)
Degree Days  
Heating Degree Days 18 21  
Month to date heating degree days 647 688  
Since 1 July heating degree days 4755 5259  
Cooling Degree Days 0 0  
Month to date cooling degree days 0 0  
Year to date cooling degree days 0 0  
Growing Degree Days 0 (Base 50)    
Moisture  
Dew Point 37 °F    
Average Humidity 66    
Maximum Humidity 92    
Minimum Humidity 40    
Precipitation  
Precipitation T in 0.06 in 0.22 in (2014)
Month to date precipitation 1.00 1.39  
Year to date precipitation 3.23 4.72  
Sea Level Pressure  
Sea Level Pressure 30.05 in    
Wind  
Wind Speed 1 mph (ENE)    
Max Wind Speed 8 mph    
Max Gust Speed 10 mph    
Visibility 10 miles    
Events      
T = Trace of Precipitation, MM = Missing Value Source: NWS Daily Summary

Daily Weather History Graph

Daily Weather History Graph

Search for Another Location

Airport or City:

Trip Planner

Search our weather history database for the weather conditions in past years. The results will help you decide how hot, cold, wet, or windy it might be!

Date:

Astronomy

Mar. 28, 2013 Rise Set
Actual Time 6:35 AM PDT 7:14 PM PDT
Civil Twilight 6:04 AM PDT 7:45 PM PDT
Nautical Twilight 5:27 AM PDT 8:22 PM PDT
Astronomical Twilight 4:48 AM PDT 9:00 PM PDT
Moon 9:22 PM PDT (3/28) 6:57 AM PDT (3/28)
Length of Visible Light 13h 40m
Length of Day
12h 38m
Full, 98% of the Moon is Illuminated
Mar 28
Full
Apr 2
Last Quarter
Apr 10
New
Apr 18
First Quarter
Apr 25
Full

Hourly Weather History & Observations

Time (PDT) Temp. Windchill Dew Point Humidity Pressure Visibility Wind Dir Wind Speed Gust Speed Precip Events Conditions
12:53 AM 39.0 °F 35.7 °F 35.1 °F 86% 30.01 in 10.0 mi NNE 4.6 mph - N/A   Partly Cloudy
1:53 AM 39.9 °F 37.8 °F 35.1 °F 83% 30.02 in 10.0 mi ENE 3.5 mph - N/A   Partly Cloudy
2:53 AM 39.9 °F - 35.1 °F 83% 30.02 in 10.0 mi Calm Calm - N/A   Scattered Clouds
3:53 AM 37.9 °F - 34.0 °F 86% 30.02 in 10.0 mi Calm Calm - N/A   Mostly Cloudy
4:53 AM 36.0 °F - 32.0 °F 86% 30.04 in 6.0 mi Calm Calm - N/A   Clear
5:53 AM 36.0 °F 33.3 °F 33.1 °F 89% 30.04 in 10.0 mi NNE 3.5 mph - N/A   Scattered Clouds
6:53 AM 36.0 °F - 32.0 °F 86% 30.06 in 10.0 mi Calm Calm - N/A   Mostly Cloudy
7:53 AM 39.0 °F - 34.0 °F 82% 30.07 in 10.0 mi Calm Calm - N/A   Mostly Cloudy
8:53 AM 43.0 °F 41.3 °F 36.0 °F 76% 30.08 in 10.0 mi NNE 3.5 mph - N/A   Mostly Cloudy
9:53 AM 46.0 °F - 37.0 °F 71% 30.08 in 10.0 mi Calm Calm - N/A   Mostly Cloudy
10:53 AM 48.9 °F - 37.9 °F 66% 30.09 in 10.0 mi East 5.8 mph - N/A   Mostly Cloudy
11:53 AM 55.0 °F - 39.0 °F 55% 30.07 in 10.0 mi Calm Calm - N/A   Scattered Clouds
12:53 PM 57.0 °F - 39.9 °F 53% 30.06 in 10.0 mi SSE 3.5 mph - N/A   Mostly Cloudy
1:53 PM 57.9 °F - 37.0 °F 46% 30.05 in 10.0 mi Calm Calm - N/A   Overcast
2:53 PM 60.1 °F - 37.0 °F 42% 30.04 in 10.0 mi Calm Calm - N/A   Mostly Cloudy
3:53 PM 59.0 °F - 36.0 °F 42% 30.03 in 10.0 mi Calm Calm - N/A   Overcast
4:53 PM 57.9 °F - 37.9 °F 47% 30.04 in 10.0 mi Calm Calm - 0.00 in   Overcast
5:53 PM 57.0 °F - 37.9 °F 49% 30.04 in 10.0 mi Calm Calm - N/A   Overcast
6:53 PM 55.9 °F - 39.0 °F 53% 30.05 in 10.0 mi Calm Calm - N/A   Overcast
7:53 PM 51.1 °F - 39.0 °F 63% 30.06 in 10.0 mi Calm Calm - N/A   Mostly Cloudy
8:53 PM 51.1 °F - 39.9 °F 66% 30.07 in 10.0 mi Calm Calm - N/A   Overcast
9:53 PM 50.0 °F - 39.9 °F 68% 30.08 in 10.0 mi Calm Calm - N/A   Overcast
10:53 PM 48.0 °F - 39.0 °F 71% 30.09 in 10.0 mi Calm Calm - N/A   Overcast
11:53 PM 46.9 °F - 37.9 °F 71% 30.09 in 10.0 mi Calm Calm - N/A   Mostly Cloudy